EW3241 Weather Reports


time (UTC)temp
C
wind
direction
speed
KPH
gust
KPH
rain 1hr
cm
rain 24hr
cm
rain mn
cm
humidity
%
barometer
mb
20260507130827 11 306 0.0 0.0 0.00 0.00 0.00 90 1017.5
20260507130318 11 306 0.0 0.0 0.00 0.00 0.00 90 1017.3
20260507125829 11 306 0.0 0.0 0.00 0.00 0.00 90 1017.2
20260507125321 11 306 0.0 0.0 0.00 0.00 0.00 90 1017.2
20260507124827 11 306 0.0 0.0 0.00 0.00 0.00 90 1017.0
20260507124323 11 306 0.0 0.0 0.00 0.00 0.00 90 1017.0
20260507123817 11 306 0.0 0.0 0.00 0.00 0.00 90 1017.0
20260507123327 11 306 0.0 0.0 0.00 0.00 0.00 90 1016.9
20260507122819 11 306 0.0 0.0 0.00 0.00 0.00 90 1017.0
20260507122327 11 306 0.0 0.0 0.00 0.00 0.00 90 1017.0
20260507121838 11 306 0.0 0.0 0.00 0.00 0.00 90 1017.0
20260507121328 11 306 0.0 0.0 0.00 0.00 0.00 89 1016.9
20260507120818 11 306 0.0 0.0 0.00 0.00 0.00 90 1016.9
20260507120328 11 306 0.0 0.0 0.00 0.00 0.00 90 1017.0
20260507115819 11 306 0.0 0.0 0.00 0.00 0.00 89 1017.0
20260507115316 11 306 0.0 0.0 0.00 0.00 0.00 89 1017.0
20260507114817 11 306 0.0 1.6 0.00 0.00 0.00 89 1017.1
20260507114326 11 306 0.0 1.6 0.00 0.00 0.00 89 1017.0
20260507113818 11 306 0.0 0.0 0.00 0.00 0.00 89 1017.0
20260507113349 11 306 0.0 0.0 0.00 0.00 0.00 89 1017.0
20260507112817 11 306 0.0 0.0 0.00 0.00 0.00 89 1017.0
20260507112349 11 306 0.0 1.6 0.00 0.00 0.00 89 1017.0
20260507111819 11 306 0.0 1.6 0.00 0.00 0.00 89 1017.1
20260507111326 11 306 0.0 0.0 0.00 0.00 0.00 89 1017.1
20260507110838 11 306 0.0 0.0 0.00 0.00 0.00 89 1017.0
20260507110329 11 306 0.0 0.0 0.00 0.00 0.00 89 1017.0
20260507105821 11 306 0.0 0.0 0.00 0.00 0.00 89 1017.0
20260507105332 11 306 0.0 0.0 0.00 0.00 0.00 89 1017.1
20260507104833 11 306 0.0 0.0 0.00 0.00 0.00 89 1017.1
20260507104322 11 306 0.0 1.6 0.00 0.00 0.00 89 1017.1
20260507103833 11 306 0.0 1.6 0.00 0.00 0.00 89 1017.2
20260507103324 11 173 0.0 0.0 0.00 0.00 0.00 89 1017.2
20260507102815 11 173 0.0 0.0 0.00 0.00 0.00 88 1017.2
20260507102326 11 173 0.0 0.0 0.00 0.00 0.00 88 1017.3
20260507101816 11 173 0.0 0.0 0.00 0.00 0.00 88 1017.3
20260507101327 11 173 0.0 0.0 0.00 0.00 0.00 89 1017.4
20260507100818 11 173 0.0 1.6 0.00 0.00 0.00 88 1017.3
20260507100350 11 173 0.0 1.6 0.00 0.00 0.00 88 1017.3
20260507095816 11 173 0.0 1.6 0.00 0.00 0.00 88 1017.5
20260507095326 11 173 0.0 1.6 0.00 0.00 0.00 88 1017.4
20260507094828 11 173 0.0 0.0 0.00 0.00 0.00 88 1017.4
20260507094320 11 173 0.0 0.0 0.00 0.00 0.00 88 1017.4
20260507093830 12 173 0.0 0.0 0.00 0.00 0.00 88 1017.5
20260507093325 12 173 0.0 0.0 0.00 0.00 0.00 88 1017.6
20260507092835 12 173 0.0 0.0 0.00 0.00 0.00 88 1017.6
20260507092329 12 173 0.0 0.0 0.00 0.00 0.00 88 1017.7
20260507091819 12 173 0.0 0.0 0.00 0.00 0.00 88 1017.6
20260507091328 12 173 0.0 1.6 0.00 0.00 0.00 88 1017.7
20260507090819 12 173 0.0 3.2 0.00 0.00 0.00 88 1017.8
20260507090333 12 173 1.6 3.2 0.00 0.00 0.00 88 1017.9
20260507085822 12 173 0.0 0.0 0.00 0.00 0.00 87 1017.8
20260507085316 12 173 0.0 0.0 0.00 0.00 0.00 87 1017.9
20260507084820 12 173 0.0 0.0 0.00 0.00 0.00 87 1018.0
20260507084327 12 173 0.0 0.0 0.00 0.00 0.00 87 1018.0
20260507083843 12 173 0.0 0.0 0.00 0.00 0.00 87 1018.1
20260507083313 12 173 0.0 1.6 0.00 0.00 0.00 87 1018.1
20260507082826 12 333 0.0 0.0 0.00 0.00 0.00 87 1018.2
20260507082320 12 340 0.0 0.0 0.00 0.00 0.00 87 1018.2
20260507081834 12 340 0.0 0.0 0.00 0.00 0.00 87 1018.3
20260507081321 12 340 0.0 0.0 0.00 0.00 0.00 87 1018.2
20260507080812 12 340 0.0 0.0 0.00 0.00 0.00 87 1018.3
20260507080327 12 340 0.0 0.0 0.00 0.00 0.00 86 1018.3
20260507075817 12 340 0.0 0.0 0.00 0.00 0.00 86 1018.2
20260507075316 12 340 0.0 0.0 0.00 0.00 0.00 86 1018.3
20260507074837 12 340 0.0 0.0 0.00 0.00 0.00 86 1018.3
20260507074323 12 340 0.0 0.0 0.00 0.00 0.00 86 1018.3
20260507073835 12 340 0.0 0.0 0.00 0.00 0.00 86 1018.3
20260507073346 13 340 0.0 0.0 0.00 0.00 0.00 86 1018.3
20260507072856 13 340 0.0 0.0 0.00 0.00 0.00 86 1018.3
20260507072327 13 340 0.0 0.0 0.00 0.00 0.00 86 1018.3
20260507071818 13 340 0.0 4.8 0.00 0.00 0.00 86 1018.2
20260507071326 13 340 1.6 4.8 0.00 0.00 0.00 86 1018.3
20260507070821 13 340 0.0 1.6 0.00 0.00 0.00 85 1018.3
20260507070319 13 340 0.0 1.6 0.00 0.00 0.00 85 1018.4
20260507065829 13 340 0.0 1.6 0.00 0.00 0.00 85 1018.5
20260507065319 13 340 0.0 1.6 0.00 0.00 0.00 85 1018.5
20260507064819 13 340 0.0 3.2 0.00 0.00 0.00 85 1018.6
20260507064351 13 340 0.0 3.2 0.00 0.00 0.00 85 1018.6
20260507063825 13 340 0.0 1.6 0.00 0.00 0.00 84 1018.6
20260507063320 13 340 0.0 1.6 0.00 0.00 0.00 84 1018.7
20260507062847 13 340 0.0 0.0 0.00 0.00 0.00 84 1018.6
20260507062316 13 340 0.0 0.0 0.00 0.00 0.00 84 1018.6
20260507061849 13 340 0.0 0.0 0.00 0.00 0.00 84 1018.6
20260507061314 13 340 0.0 0.0 0.00 0.00 0.00 84 1018.6
20260507060827 13 340 0.0 0.0 0.00 0.00 0.00 84 1018.6
20260507060325 14 340 0.0 0.0 0.00 0.00 0.00 83 1018.6
20260507055835 14 340 0.0 0.0 0.00 0.00 0.00 83 1018.6
20260507055326 14 340 0.0 0.0 0.00 0.00 0.00 83 1018.5
20260507054846 14 340 0.0 3.2 0.00 0.00 0.00 83 1018.5
20260507054353 14 340 0.0 3.2 0.00 0.00 0.00 83 1018.5
20260507053824 15 340 0.0 0.0 0.00 0.00 0.00 83 1018.5
20260507053314 15 338 0.0 0.0 0.00 0.00 0.00 83 1018.4
20260507052826 15 338 0.0 1.6 0.00 0.00 0.00 82 1018.4
20260507052339 15 338 0.0 1.6 0.00 0.00 0.00 82 1018.5
20260507051850 15 338 0.0 1.6 0.00 0.00 0.00 82 1018.5
20260507051317 15 338 0.0 1.6 0.00 0.00 0.00 82 1018.5
20260507050829 15 338 0.0 1.6 0.00 0.00 0.00 81 1018.5
20260507050343 15 338 0.0 0.0 0.00 0.00 0.00 81 1018.4
20260507045831 15 338 0.0 0.0 0.00 0.00 0.00 81 1018.5
20260507045325 15 338 0.0 0.0 0.00 0.00 0.00 81 1018.5
20260507044845 15 338 0.0 0.0 0.00 0.00 0.00 80 1018.5
20260507044332 15 338 0.0 0.0 0.00 0.00 0.00 80 1018.5
20260507043822 16 338 0.0 1.6 0.00 0.00 0.00 80 1018.5
20260507043334 16 338 0.0 1.6 0.00 0.00 0.00 79 1018.4
20260507042845 16 338 0.0 0.0 0.00 0.00 0.00 79 1018.4
20260507042318 16 338 0.0 3.2 0.00 0.00 0.00 79 1018.3
20260507041831 16 338 0.0 3.2 0.00 0.00 0.00 78 1018.3
20260507041341 16 338 1.6 3.2 0.00 0.00 0.00 78 1018.3
20260507040834 16 338 0.0 3.2 0.00 0.00 0.00 78 1018.2
20260507040326 16 338 0.0 4.8 0.00 0.00 0.00 77 1018.2
20260507035842 16 338 1.6 4.8 0.00 0.00 0.00 77 1018.2
20260507035333 16 338 3.2 4.8 0.00 0.00 0.00 77 1018.1
20260507034813 16 338 0.0 3.2 0.00 0.00 0.00 76 1018.0
20260507034325 16 338 0.0 3.2 0.00 0.00 0.00 76 1017.9
20260507033816 16 338 0.0 3.2 0.00 0.00 0.00 75 1018.0
20260507033327 16 338 0.0 3.2 0.00 0.00 0.00 75 1017.9
20260507032837 17 338 0.0 3.2 0.00 0.00 0.00 74 1017.8
20260507032347 17 338 1.6 3.2 0.00 0.00 0.00 74 1017.8
20260507031836 17 338 1.6 4.8 0.00 0.00 0.00 74 1017.8
20260507031344 17 338 1.6 4.8 0.00 0.00 0.00 73 1017.8
20260507030834 17 339 3.2 4.8 0.00 0.00 0.00 73 1017.7
20260507030327 17 342 3.2 6.4 0.00 0.00 0.00 73 1017.7
20260507025815 17 348 1.6 8.0 0.00 0.00 0.00 72 1017.7
20260507025326 17 329 3.2 8.0 0.00 0.00 0.00 72 1017.6
20260507024815 17 309 0.0 8.0 0.00 0.00 0.00 71 1017.6
20260507024344 17 299 4.8 8.0 0.00 0.00 0.00 71 1017.5
20260507023833 17 346 1.6 9.7 0.00 0.00 0.00 70 1017.5
20260507023325 18 319 3.2 9.7 0.00 0.00 0.00 70 1017.4
20260507022834 18 321 1.6 6.4 0.00 0.00 0.00 70 1017.4
20260507022326 18 355 3.2 6.4 0.00 0.00 0.00 69 1017.3
20260507021817 18 342 1.6 6.4 0.00 0.00 0.00 69 1017.3
20260507021325 18 343 3.2 14.5 0.00 0.00 0.00 69 1017.3
20260507020817 18 360 8.0 14.5 0.00 0.00 0.00 68 1017.3
20260507020315 18 26 1.6 9.7 0.00 0.00 0.00 68 1017.2
20260507015822 18 313 3.2 11.3 0.00 0.00 0.00 68 1017.2
20260507015332 19 355 3.2 11.3 0.00 0.00 0.00 67 1017.2
20260507014833 19 360 3.2 9.7 0.00 0.00 0.00 67 1017.1
20260507014341 19 355 3.2 8.0 0.00 0.00 0.00 67 1017.2
20260507013832 19 300 3.2 11.3 0.00 0.00 0.00 66 1017.1
20260507013324 20 302 3.2 11.3 0.00 0.00 0.00 66 1017.1
20260507012815 20 211 3.2 9.7 0.00 0.00 0.00 66 1017.1
20260507012327 20 267 1.6 16.1 0.00 0.00 0.00 66 1017.1
20260507011818 20 242 6.4 16.1 0.00 0.00 0.00 66 1017.0
20260507011326 20 244 6.4 14.5 0.00 0.00 0.00 65 1017.0
20260507010822 20 222 6.4 12.9 0.00 0.00 0.00 64 1017.0
20260507010337 20 259 9.7 14.5 0.00 0.00 0.00 63 1017.0
20260507005845 20 313 6.4 16.1 0.00 0.00 0.00 63 1017.0
20260507005316 21 263 8.0 17.7 0.00 0.00 0.00 62 1016.9
20260507004836 21 261 9.7 17.7 0.00 0.00 0.00 61 1016.9
20260507004327 21 229 8.0 12.9 0.00 0.00 0.00 60 1017.0
20260507003821 21 265 6.4 12.9 0.00 0.00 0.00 59 1016.9
20260507003353 21 287 8.0 12.9 0.00 0.00 0.00 58 1016.9
20260507002821 22 256 8.0 16.1 0.00 0.00 0.00 59 1016.9
20260507002333 22 238 4.8 16.1 0.00 0.00 0.00 59 1016.8
20260507001824 22 277 8.0 16.1 0.00 0.00 0.00 59 1016.9
20260507001315 22 265 6.4 17.7 0.00 0.00 0.00 58 1016.8
20260507000827 22 251 9.7 17.7 0.00 0.00 0.00 57 1016.8
20260507000321 22 262 9.7 14.5 0.00 0.00 0.00 58 1016.8
20260506235833 22 307 8.0 16.1 0.00 0.00 0.00 57 1016.7
20260506235324 22 216 6.4 16.1 0.00 0.00 0.00 58 1016.6
20260506234825 22 15 4.8 16.1 0.00 0.00 0.00 59 1016.6
20260506234333 22 278 9.7 14.5 0.00 0.00 0.00 59 1016.6
20260506233825 22 240 6.4 19.3 0.00 0.00 0.00 58 1016.5
20260506233317 22 224 6.4 17.7 0.00 0.00 0.00 58 1016.5
20260506232829 22 251 9.7 17.7 0.00 0.00 0.00 59 1016.5
20260506232324 22 226 8.0 17.7 0.00 0.00 0.00 59 1016.6
20260506231816 22 302 8.0 16.1 0.00 0.00 0.00 59 1016.6
20260506231326 22 254 3.2 19.3 0.00 0.00 0.00 58 1016.7
20260506230815 22 292 4.8 19.3 0.00 0.00 0.00 58 1016.7
20260506230328 23 220 8.0 22.5 0.00 0.00 0.00 58 1016.7
20260506225820 22 294 4.8 22.5 0.00 0.00 0.00 59 1016.8
20260506225352 23 275 8.0 19.3 0.00 0.00 0.00 59 1016.8
20260506224831 23 261 4.8 19.3 0.00 0.00 0.00 58 1016.7
20260506224321 23 257 9.7 20.9 0.00 0.00 0.00 58 1016.8
20260506223816 23 223 9.7 20.9 0.00 0.00 0.00 58 1016.8
20260506223348 23 261 8.0 22.5 0.00 0.00 0.00 58 1016.8
20260506222817 23 254 14.5 22.5 0.00 0.00 0.00 57 1016.9
20260506222328 23 249 11.3 24.1 0.00 0.00 0.00 57 1016.8
20260506221819 23 237 9.7 20.9 0.00 0.00 0.00 56 1016.9
20260506221330 23 245 6.4 22.5 0.00 0.00 0.00 56 1017.0
20260506220821 23 15 4.8 22.5 0.00 0.00 0.00 56 1017.0
20260506220333 23 243 11.3 19.3 0.00 0.00 0.00 56 1017.0
20260506215822 23 355 12.9 19.3 0.00 0.00 0.00 55 1017.1
20260506215337 23 261 8.0 19.3 0.00 0.00 0.00 56 1017.1
20260506214816 23 275 12.9 20.9 0.00 0.00 0.00 56 1017.1
20260506214326 23 277 6.4 16.1 0.00 0.00 0.00 55 1017.1
20260506213818 23 327 8.0 22.5 0.00 0.00 0.00 55 1017.2
20260506213350 23 251 9.7 22.5 0.00 0.00 0.00 55 1017.2
20260506212819 23 300 9.7 19.3 0.00 0.00 0.00 56 1017.3
20260506212334 23 275 6.4 19.3 0.00 0.00 0.00 56 1017.3
20260506211825 23 257 11.3 20.9 0.00 0.00 0.00 56 1017.2
20260506211313 23 311 6.4 20.9 0.00 0.00 0.00 56 1017.2
20260506210828 23 236 9.7 22.5 0.00 0.00 0.00 57 1017.3
20260506210322 23 201 11.3 22.5 0.00 0.00 0.00 55 1017.3
20260506205849 24 355 12.9 20.9 0.00 0.00 0.00 55 1017.4
20260506205343 24 210 8.0 20.9 0.00 0.00 0.00 55 1017.4
20260506204825 24 240 6.4 17.7 0.00 0.00 0.00 55 1017.4
20260506204316 24 274 8.0 17.7 0.00 0.00 0.00 55 1017.4
20260506203827 24 5 11.3 20.9 0.00 0.00 0.00 54 1017.4
20260506203339 24 355 12.9 20.9 0.00 0.00 0.00 55 1017.5
20260506202850 24 355 6.4 16.1 0.00 0.00 0.00 54 1017.5
20260506202339 24 345 6.4 19.3 0.00 0.00 0.00 55 1017.5
20260506201852 24 275 8.0 19.3 0.00 0.00 0.00 55 1017.5
20260506201318 24 254 4.8 16.1 0.00 0.00 0.00 55 1017.5
20260506200850 24 349 4.8 16.1 0.00 0.00 0.00 54 1017.5
20260506200321 24 331 8.0 16.1 0.00 0.00 0.00 53 1017.6
20260506195834 24 360 11.3 16.1 0.00 0.00 0.00 53 1017.7
20260506195323 23 292 3.2 17.7 0.00 0.00 0.00 53 1017.7
20260506194826 23 355 12.9 17.7 0.00 0.00 0.00 52 1017.8
20260506194353 23 266 4.8 16.1 0.00 0.00 0.00 52 1017.9
20260506193845 24 344 9.7 16.1 0.00 0.00 0.00 52 1017.9
20260506193315 24 285 6.4 12.9 0.00 0.00 0.00 52 1018.0
20260506192827 23 333 8.0 16.1 0.00 0.00 0.00 52 1018.0
20260506192321 23 346 8.0 16.1 0.00 0.00 0.00 53 1018.1
20260506191831 23 254 9.7 16.1 0.00 0.00 0.00 54 1018.1
20260506191318 23 251 3.2 16.1 0.00 0.00 0.00 53 1018.2
20260506190830 23 275 6.4 12.9 0.00 0.00 0.00 54 1018.2
20260506190342 22 67 4.8 14.5 0.00 0.00 0.00 55 1018.2
20260506185827 22 5 9.7 14.5 0.00 0.00 0.00 55 1018.3
20260506185317 22 62 8.0 14.5 0.00 0.00 0.00 54 1018.4
20260506184817 22 327 6.4 14.5 0.00 0.00 0.00 55 1018.4
20260506184326 22 277 9.7 17.7 0.00 0.00 0.00 56 1018.5
20260506183818 22 290 4.8 17.7 0.00 0.00 0.00 55 1018.6
20260506183349 22 339 11.3 17.7 0.00 0.00 0.00 56 1018.6
20260506182822 22 98 3.2 12.9 0.00 0.00 0.00 54 1018.7
20260506182334 22 19 1.6 14.5 0.00 0.00 0.00 56 1018.8
20260506181826 22 290 8.0 14.5 0.00 0.00 0.00 56 1018.8
20260506181354 22 267 6.4 12.9 0.00 0.00 0.00 56 1018.8
20260506180824 22 81 3.2 14.5 0.00 0.00 0.00 56 1019.0
20260506180315 21 32 9.7 14.5 0.00 0.00 0.00 56 1019.0
20260506175827 21 355 9.7 12.9 0.00 0.00 0.00 55 1019.0
20260506175318 21 32 4.8 12.9 0.00 0.00 0.00 56 1018.9
20260506174821 21 297 8.0 12.9 0.00 0.00 0.00 56 1019.0
20260506174313 21 10 3.2 11.3 0.00 0.08 0.00 57 1019.2
20260506173828 21 355 4.8 14.5 0.00 0.08 0.00 55 1019.2
20260506173320 21 19 6.4 14.5 0.00 0.08 0.00 56 1019.3
20260506172829 21 347 3.2 9.7 0.00 0.08 0.00 56 1019.3
20260506172322 21 319 4.8 16.1 0.00 0.08 0.00 56 1019.4
20260506171832 20 37 4.8 16.1 0.00 0.08 0.00 56 1019.4
20260506171318 20 46 3.2 12.9 0.00 0.08 0.00 57 1019.4
20260506170831 20 113 6.4 12.9 0.00 0.08 0.00 60 1019.4
20260506170321 20 28 4.8 12.9 0.00 0.08 0.00 64 1019.4
20260506165832 19 315 6.4 11.3 0.00 0.08 0.00 64 1019.3
20260506165325 19 37 4.8 9.7 0.00 0.08 0.00 65 1019.4
20260506164829 19 338 6.4 9.7 0.00 0.08 0.00 65 1019.4
20260506164320 18 322 4.8 11.3 0.00 0.08 0.00 65 1019.3
20260506163834 18 279 4.8 11.3 0.00 0.08 0.00 66 1019.3
20260506163326 18 343 6.4 11.3 0.00 0.08 0.00 66 1019.4
20260506162835 18 296 3.2 11.3 0.00 0.08 0.00 66 1019.4
20260506162326 18 21 4.8 9.7 0.00 0.08 0.00 67 1019.4
20260506161817 18 11 4.8 11.3 0.00 0.08 0.00 68 1019.4
20260506161346 18 315 8.0 11.3 0.00 0.08 0.00 70 1019.4
20260506160817 17 84 1.6 11.3 0.00 0.08 0.00 71 1019.3
20260506160327 17 5 1.6 6.4 0.00 0.08 0.00 73 1019.4
20260506155818 17 308 1.6 8.0 0.00 0.08 0.00 73 1019.4
20260506155349 17 286 1.6 11.3 0.00 0.08 0.00 74 1019.4
20260506154848 17 264 6.4 11.3 0.00 0.08 0.00 75 1019.3
20260506154316 16 281 3.2 6.4 0.00 0.08 0.00 78 1019.4
20260506153827 16 55 3.2 6.4 0.00 0.08 0.00 80 1019.5
20260506153316 16 248 3.2 6.4 0.00 0.08 0.00 82 1019.4
20260506152823 15 288 4.8 6.4 0.00 0.08 0.00 85 1019.4
20260506152317 15 260 3.2 4.8 0.00 0.08 0.00 87 1019.5
20260506151848 14 254 3.2 4.8 0.00 0.08 0.00 87 1019.5
20260506151318 13 355 0.0 3.2 0.00 0.08 0.00 89 1019.5
20260506150833 13 355 0.0 0.0 0.00 0.08 0.00 89 1019.5
20260506150323 13 355 0.0 1.6 0.00 0.08 0.00 89 1019.6
20260506145816 13 355 0.0 3.2 0.00 0.08 0.00 90 1019.5
20260506145331 12 355 0.0 3.2 0.00 0.08 0.00 90 1019.6
20260506144831 12 355 1.6 3.2 0.00 0.08 0.00 90 1019.5
20260506144319 12 360 0.0 0.0 0.00 0.79 0.00 90 1019.5
20260506143830 11 360 0.0 0.0 0.00 0.79 0.00 90 1019.5
20260506143324 11 360 0.0 0.0 0.00 0.79 0.00 90 1019.5
20260506142855 11 360 0.0 0.0 0.00 0.79 0.00 91 1019.4
20260506142325 11 360 0.0 0.0 0.00 0.79 0.00 91 1019.4
20260506141819 10 360 0.0 0.0 0.00 0.79 0.00 90 1019.4
20260506141328 10 360 0.0 1.6 0.00 0.79 0.00 90 1019.4
20260506140824 10 360 0.0 1.6 0.00 0.79 0.00 90 1019.4
20260506140316 10 360 0.0 1.6 0.00 0.79 0.00 90 1019.4
20260506135829 10 348 0.0 3.2 0.00 0.79 0.00 90 1019.4
20260506135342 10 360 1.6 3.2 0.00 0.79 0.00 90 1019.3
20260506134821 10 360 0.0 3.2 0.00 0.79 0.00 90 1019.3
20260506134332 9 360 0.0 3.2 0.00 0.79 0.00 89 1019.3
20260506133824 9 360 1.6 3.2 0.00 0.79 0.00 89 1019.2
20260506133315 9 360 0.0 0.0 0.00 0.79 0.00 89 1019.2
20260506132827 8 360 0.0 0.0 0.00 0.79 0.00 89 1019.1
20260506132325 8 360 0.0 0.0 0.00 0.79 0.00 89 1019.1
20260506131816 8 360 0.0 0.0 0.00 0.79 0.00 89 1019.0
20260506131325 8 360 0.0 0.0 0.00 0.79 0.00 89 1019.0